GPS BIIF-11 (PRN 10)

Last updated on Sat Oct 25 2025 00:03:19 GMT+0000 (Coordinated Universal Time)

1 41019U 15062A 25297.45096880 -.00000071 00000+0 00000+0 0 9991 2 41019 56.7983 39.9085 0108984 228.7116 130.3601 2.00567170 73109
UTC large
Height (km)
Speed (km/s)
/
Latitude / Longitude
Inclination (degrees)
Orbital Period (minutes)
Azimuth
Elevation
Range (km)
Doppler Factor

Next 0 passes for location: London (51.5072 / 0.1276)

Sorry there are no passes over London.